GFSSW_sfc_rhum_057.txt.gz
RH
77 77 77 78 79 78 78 78 78 78 79 80 80 80 78 77 78 75 47 27 36 53 63 70 64 62 60 64 67 56 69 66 53 56 58 55 59 55 48 58 53 53 54 54 66
78 76 77 78 78 78 79 79 79 79 79 80 80 79 78 75 76 63 39 48 54 61 64 65 61 61 64 65 69 73 76 59 42 45 56 58 54 54 57 58 65 64 57 61 65
76 76 76 78 77 78 80 80 80 81 81 81 80 77 77 74 56 20 50 60 55 52 47 50 47 50 58 62 65 60 72 56 44 42 50 50 55 49 56 63 62 70 75 70 65
77 77 78 78 77 78 80 81 82 82 82 82 80 77 78 76 13 21 60 65 57 41 52 40 45 47 45 56 56 70 60 58 48 41 44 46 43 52 51 49 50 58 63 63 62
78 81 82 82 79 79 80 81 83 83 83 83 79 78 73 39 19 28 58 55 45 48 42 34 40 36 33 42 51 63 58 50 46 43 41 41 45 53 53 51 52 57 60 60 57
80 83 83 83 82 81 80 82 84 84 84 82 77 77 61 21 20 30 44 45 44 46 33 35 35 31 30 44 40 45 49 47 43 41 39 41 40 48 59 53 59 62 61 57 55
82 82 82 82 82 79 81 83 84 83 80 80 80 64 52 22 29 35 42 43 44 38 34 30 29 27 24 26 28 34 44 35 35 40 44 34 43 46 56 56 63 62 61 57 56
84 83 82 81 81 81 84 85 85 78 80 78 74 66 34 31 34 35 31 42 40 33 22 19 17 25 21 20 18 22 29 44 35 33 32 35 45 50 55 57 63 62 60 59 57
84 83 82 81 82 85 88 86 80 79 81 72 70 64 13 31 13 12 20 24 34 38 23 16 16 20 19 24 21 27 18 34 41 29 37 37 44 54 54 54 60 62 60 58 58
84 83 82 82 84 87 89 82 85 81 74 67 58 41 12 11 11 11 15 31 36 31 21 18 22 20 20 22 17 20 22 30 38 33 32 38 41 60 56 54 58 61 59 59 57
84 84 82 82 85 87 66 30 24 20 24 19 16 16 11 10 10 11 19 28 29 22 20 22 20 27 17 19 18 23 26 20 30 30 32 35 35 59 59 55 60 60 59 57 55
84 84 83 84 87 90 43 25 30 32 31 19 17 16 13 12 13 11 13 29 34 30 24 24 21 15 15 17 21 21 27 27 22 26 34 36 36 44 60 58 55 57 56 55 50
84 84 84 86 88 47 30 27 29 27 23 17 14 12 9 11 13 12 16 17 30 34 28 22 19 17 17 17 20 20 22 25 25 24 25 35 35 41 54 55 55 50 49 47 48
84 84 86 91 42 44 24 32 38 30 18 15 12 10 10 12 12 12 23 18 17 32 30 28 20 20 19 18 16 18 16 22 24 25 33 29 41 40 42 63 60 55 53 46 46
85 85 86 88 51 28 30 38 27 17 13 14 14 9 12 12 17 13 27 26 25 25 31 30 26 24 22 19 16 16 13 14 19 27 26 26 39 32 38 57 57 53 51 50 48
86 88 88 63 51 31 38 36 19 19 20 18 16 14 16 18 18 20 33 31 38 37 32 26 21 22 20 17 16 14 18 17 14 17 34 30 28 31 35 45 48 49 48 49 48
87 89 80 58 35 31 41 20 22 22 20 23 22 15 20 21 18 27 42 43 42 31 36 37 25 19 19 23 18 18 18 25 30 22 28 24 30 29 24 28 32 44 48 47 48
90 87 66 47 36 41 25 23 29 30 26 20 20 17 22 23 22 26 33 34 43 53 46 41 24 24 18 20 23 22 20 21 35 22 15 21 33 27 20 18 26 29 34 41 46
87 51 41 34 35 36 26 32 30 33 35 31 23 24 22 24 24 22 32 42 50 41 42 52 46 38 34 32 20 24 25 16 20 27 22 13 22 21 20 20 18 20 33 40 44
76 56 37 35 37 27 31 47 40 38 38 32 31 27 30 28 26 25 26 44 51 43 45 49 40 38 39 33 27 23 19 27 25 31 31 19 20 21 26 24 21 21 29 35 40
57 39 34 38 32 35 40 48 47 37 38 37 33 31 30 31 30 28 26 42 39 42 49 51 47 26 36 36 27 28 27 24 22 24 26 23 20 17 21 24 24 23 24 26 34
74 35 36 37 43 51 49 62 63 44 41 43 38 34 33 34 34 34 31 31 39 43 49 56 48 46 35 32 38 40 33 23 31 37 29 25 19 16 18 18 18 17 22 24 30
80 78 40 37 60 66 65 61 55 49 48 46 46 43 37 37 47 41 43 46 45 47 54 61 69 52 21 21 36 37 40 35 27 29 37 32 24 15 19 20 22 22 21 30 35
68 46 48 53 60 66 76 66 62 48 54 54 51 46 49 50 45 49 46 46 47 43 56 65 65 54 35 37 42 54 45 40 38 30 33 30 27 21 18 21 18 20 20 22 32
70 78 76 65 64 74 69 71 71 74 59 54 58 56 62 60 57 56 48 45 44 50 64 63 57 48 37 37 41 47 46 43 41 35 35 27 29 25 23 21 20 21 29 31 27
72 82 74 74 78 78 72 80 89 86 88 73 79 61 88 96 67 61 51 48 52 58 63 74 56 55 48 32 42 47 40 38 34 35 38 34 33 25 33 44 42 53 56 52 50
75 75 88 84 77 90 92 91 88 86 84 73 82 92 91 65 56 53 48 46 47 56 69 72 70 53 40 45 48 50 40 34 33 44 35 37 30 46 46 58 59 56 55 59 60

GFSSW_sfc_rhum_060.txt.gz
RH
76 76 76 77 78 78 79 80 80 80 80 80 80 79 76 75 77 54 24 23 25 53 62 40 41 40 37 46 49 47 47 45 38 39 42 40 53 40 39 43 42 40 40 42 49
76 75 76 77 76 77 79 80 80 81 81 81 80 78 76 73 44 30 26 39 48 56 43 43 44 40 38 41 53 49 48 39 30 33 42 42 41 43 42 43 45 45 39 43 52
76 75 76 77 76 77 79 80 80 82 82 82 79 74 75 62 31 18 42 57 56 54 27 32 31 34 33 33 39 40 48 39 33 34 34 43 38 35 39 45 42 47 47 49 56
76 77 78 77 77 78 79 79 81 82 82 82 80 76 73 45 12 18 57 62 68 33 25 27 29 31 29 35 31 38 35 38 33 31 35 35 33 37 36 36 34 39 44 49 50
81 83 83 82 79 80 79 80 82 83 83 82 80 77 58 26 10 18 53 59 41 27 27 29 28 24 21 21 25 34 33 35 34 31 30 32 34 38 38 37 36 41 45 47 44
83 83 83 82 83 80 80 81 82 83 83 82 80 79 36 12 14 19 31 32 22 19 25 20 20 16 16 18 20 23 23 29 31 31 29 32 30 35 38 38 41 45 45 42 40
84 83 83 82 81 80 82 83 84 83 81 79 77 48 23 18 18 16 26 26 24 19 21 17 16 17 13 17 18 17 27 23 26 31 32 29 33 33 38 40 45 45 44 41 39
84 84 83 83 80 82 84 87 82 77 79 77 76 42 17 14 15 13 19 26 28 24 16 18 16 16 15 12 12 14 16 22 21 28 30 29 33 30 36 39 46 44 43 42 40
84 84 83 83 84 86 88 87 80 78 78 71 48 33 10 26 9 9 12 23 26 20 19 17 15 17 16 14 10 10 12 16 31 25 27 29 30 35 34 35 43 45 43 42 42
84 84 84 84 86 88 89 82 83 79 58 45 35 24 8 10 9 9 13 20 26 24 16 16 15 15 14 12 12 11 12 12 26 27 26 29 29 36 36 35 41 44 42 43 42
84 85 85 85 86 89 50 23 21 14 12 14 11 10 8 8 8 11 18 22 21 27 20 14 17 16 11 11 10 13 11 12 19 24 27 28 27 36 37 36 41 44 43 43 42
86 86 86 86 88 88 33 17 25 25 19 11 11 9 8 8 10 10 16 22 21 22 16 15 15 12 11 10 12 12 17 17 13 20 32 27 26 24 36 36 37 42 42 40 39
86 86 87 88 88 44 19 23 22 23 18 11 9 8 8 8 10 10 13 20 23 19 16 15 12 10 10 13 14 13 12 15 16 16 26 28 28 26 28 34 34 35 36 36 37
86 86 88 92 49 21 18 21 21 22 13 13 9 8 8 8 10 10 16 15 19 23 19 16 12 14 12 14 12 12 9 10 16 20 23 23 31 29 25 35 36 35 36 35 36
86 87 88 94 26 19 23 20 18 16 11 11 10 8 9 10 10 11 17 17 15 16 21 21 18 17 17 14 10 13 8 10 11 18 20 21 28 24 22 30 36 34 33 31 33
86 88 89 45 27 20 20 19 15 16 14 13 12 12 11 11 11 12 15 17 23 20 18 19 17 16 16 14 13 11 12 11 11 10 19 20 22 24 24 25 24 30 30 32 30
86 89 62 30 24 20 21 16 16 14 14 17 15 12 13 14 13 16 18 19 17 20 18 17 17 16 16 18 14 13 13 18 18 13 10 12 19 21 17 18 19 22 28 29 31
88 90 64 27 21 21 22 19 26 18 17 15 15 15 16 16 15 16 18 16 23 19 15 18 16 14 15 18 17 17 14 15 25 14 10 8 16 17 15 15 16 18 22 26 28
90 26 22 22 22 22 23 26 22 22 22 21 17 19 16 16 17 17 19 18 25 21 21 21 20 19 21 15 16 18 19 12 12 11 11 8 8 10 13 15 16 18 19 22 25
39 27 22 22 22 20 23 35 27 26 26 23 24 20 21 18 21 19 18 23 27 24 20 23 25 15 20 24 21 20 14 18 16 25 25 14 13 9 18 18 17 17 16 19 21
29 26 23 21 20 22 25 33 33 28 29 30 28 26 24 24 23 22 21 21 24 26 25 21 22 14 16 24 19 20 22 20 15 16 20 19 13 9 12 14 17 16 16 15 21
27 22 24 23 26 27 31 41 54 31 30 31 31 29 29 26 27 26 25 22 25 24 26 24 22 24 17 12 21 23 24 19 23 28 18 17 12 8 10 9 12 14 14 14 16
30 28 25 22 32 35 39 36 37 36 37 35 34 31 28 29 36 29 27 24 29 25 27 29 24 29 20 13 14 20 22 22 19 18 27 23 18 11 12 16 12 13 14 16 17
33 32 32 32 34 42 47 46 44 37 38 39 37 34 35 37 32 38 31 27 31 27 51 41 23 29 21 23 23 36 32 29 26 27 25 20 20 16 14 15 16 18 16 14 18
38 44 47 43 41 42 40 45 48 50 42 40 44 43 45 53 46 44 36 32 29 34 38 36 36 29 24 21 20 22 25 28 32 30 30 21 21 19 17 15 15 14 18 21 18
42 51 41 57 56 58 62 63 64 68 68 63 54 51 56 72 51 57 42 40 40 32 39 42 45 33 33 21 16 16 17 21 23 30 28 26 24 15 17 21 27 24 33 31 27
45 48 46 63 56 68 68 78 82 81 72 64 68 79 75 79 55 48 39 34 40 48 60 56 43 36 33 19 21 28 23 23 23 25 26 28 24 19 21 26 33 36 34 34 34

GFSSW_sfc_rhum_063.txt.gz
RH
76 77 77 77 77 77 78 79 80 80 80 81 80 80 77 76 77 48 19 23 23 48 63 28 25 28 27 30 39 48 58 49 36 34 48 30 34 30 28 34 32 32 41 43 44
75 76 76 77 76 77 79 80 80 80 81 81 81 79 75 74 41 22 31 38 42 48 36 27 29 29 30 29 30 54 62 58 60 29 38 34 32 33 34 33 36 37 39 42 40
74 75 78 77 77 78 80 80 80 81 81 81 81 78 75 64 30 16 44 47 58 46 30 24 24 27 28 24 27 31 53 32 31 33 28 29 35 28 40 34 32 40 50 51 42
75 77 79 78 78 80 80 80 81 82 82 82 81 78 75 43 18 18 50 60 64 30 31 24 24 27 24 25 23 29 24 31 38 34 30 31 28 30 38 41 26 32 41 47 44
80 82 83 81 80 81 81 82 82 82 82 81 81 78 62 27 11 13 49 54 38 22 27 24 24 23 21 18 19 25 28 29 30 28 28 34 26 32 33 27 27 31 39 47 41
84 84 84 84 83 81 81 84 84 84 82 82 81 77 43 17 10 12 21 27 22 16 21 20 19 18 16 14 16 16 19 27 30 27 28 28 26 25 32 28 32 35 39 42 37
84 84 84 84 80 81 82 84 87 81 81 77 78 53 23 14 11 11 18 18 19 13 16 17 14 16 13 13 11 14 19 19 22 32 31 23 41 26 30 30 36 36 38 41 38
85 85 85 84 82 83 85 85 84 74 76 76 76 38 15 9 10 11 15 18 15 12 12 15 12 13 12 9 11 14 15 20 18 22 26 25 37 24 28 31 37 36 36 40 37
86 86 86 86 86 87 89 86 82 77 76 73 54 28 10 19 9 8 13 18 19 18 15 13 13 15 13 13 12 9 15 16 16 14 23 26 44 61 26 28 35 36 35 36 38
86 86 86 87 87 88 88 84 79 77 66 33 23 20 8 9 8 8 9 14 22 16 19 18 18 15 14 13 12 10 10 10 15 23 23 27 42 85 30 26 34 35 34 35 34
86 87 87 87 88 88 56 28 31 26 16 9 8 8 7 7 7 11 13 17 18 18 17 18 18 14 13 13 10 7 7 10 11 28 25 28 34 85 28 24 34 36 34 34 34
87 86 87 87 89 88 45 13 17 16 14 7 8 7 7 7 8 11 14 16 20 24 16 12 14 11 9 8 9 8 9 10 9 13 27 28 31 31 26 26 30 34 34 33 32
87 86 87 88 90 50 14 17 14 14 14 8 6 6 6 6 8 9 11 16 16 20 18 15 10 9 10 10 10 9 10 10 12 10 18 25 36 30 50 25 27 28 30 29 32
86 86 87 92 54 13 15 14 12 13 14 10 8 6 6 6 8 8 10 13 14 16 12 12 10 10 10 10 10 12 8 8 9 14 17 18 35 66 44 30 28 28 30 29 29
86 85 88 94 30 14 16 12 11 13 15 9 7 6 6 7 9 9 9 12 13 12 15 15 12 12 13 10 9 12 8 8 8 9 15 16 23 36 32 42 27 26 28 27 28
84 85 88 42 24 14 13 12 12 15 14 10 8 8 8 8 8 8 9 9 10 13 12 14 11 11 10 10 10 10 10 10 8 8 12 16 17 23 28 30 23 24 25 26 26
83 87 72 25 19 13 13 15 17 12 11 12 10 8 9 10 9 10 12 11 10 15 12 10 11 11 13 13 11 12 12 16 16 13 12 8 14 18 17 23 22 21 23 24 25
83 88 53 18 14 14 16 19 23 13 12 11 10 10 10 10 10 10 11 11 14 12 11 12 12 10 10 15 15 14 12 15 25 15 11 9 10 12 12 14 21 25 22 21 23
88 24 17 15 15 16 20 22 21 17 16 15 12 13 11 11 12 13 12 11 12 15 16 10 11 10 11 9 12 15 16 10 12 10 11 8 7 5 9 12 19 40 21 24 22
37 16 17 15 15 17 21 32 21 19 20 17 20 15 16 13 15 14 13 13 17 17 14 13 19 12 11 13 14 14 12 15 14 25 23 12 12 8 9 11 12 16 16 19 21
38 22 18 15 15 20 21 26 24 20 23 23 23 21 19 19 17 17 17 15 15 17 18 14 16 16 9 16 18 14 18 18 14 13 19 18 12 8 9 9 12 12 15 15 19
20 20 19 16 22 19 22 28 47 22 22 24 24 24 24 22 23 22 21 17 17 17 21 16 16 19 14 8 8 10 12 11 20 27 15 15 12 7 7 6 10 11 13 13 14
22 22 17 16 23 23 27 25 25 25 26 27 26 23 23 25 31 26 23 18 18 22 22 20 22 26 19 13 11 12 13 15 14 13 24 18 14 8 9 10 8 9 11 14 14
25 25 22 20 21 26 31 31 30 26 27 28 28 25 27 29 26 32 26 23 23 21 47 30 25 28 21 19 17 18 13 15 15 19 19 18 15 12 12 13 13 11 11 12 16
26 29 33 31 31 29 30 32 34 42 31 31 34 34 35 37 32 30 26 24 22 26 30 26 33 25 18 16 16 17 17 16 18 23 28 18 19 16 13 13 13 13 14 14 16
31 32 27 32 38 40 42 49 60 58 55 44 39 39 38 48 41 50 44 44 38 30 33 22 33 33 40 26 17 19 16 16 20 21 24 24 26 16 17 20 12 16 17 24 23
31 34 31 52 44 46 42 48 57 54 50 44 49 53 50 39 33 32 30 27 26 34 38 39 67 46 46 26 22 23 17 14 14 16 18 24 24 20 20 22 26 20 25 27 26

GFSSW_sfc_rhum_069.txt.gz
RH
76 76 77 78 78 79 81 82 82 82 82 82 83 84 85 85 84 69 38 26 30 54 48 26 23 29 37 55 47 46 82 86 80 79 68 62 65 38 45 53 46 46 53 52 46
76 75 78 79 79 79 82 83 83 83 82 82 83 83 84 82 66 49 38 54 58 58 15 24 26 30 41 46 42 51 86 68 51 61 71 58 66 43 51 48 51 53 50 47 47
76 78 81 81 80 80 82 83 83 82 83 83 82 82 83 75 61 30 50 58 59 49 14 19 22 29 40 38 40 39 57 48 48 62 75 56 69 84 46 61 56 64 56 50 49
78 81 83 83 82 82 82 83 83 84 86 85 82 81 80 67 42 24 60 60 62 25 16 24 32 32 41 40 33 41 32 33 49 47 53 73 81 84 77 69 52 48 49 50 50
81 83 84 84 84 84 83 83 84 84 88 83 80 81 85 62 35 28 62 58 37 25 19 20 41 37 38 35 31 32 28 26 28 43 52 70 68 73 77 58 47 48 48 50 48
84 86 87 87 85 83 84 86 85 83 87 80 80 81 75 47 15 29 34 38 23 22 20 19 39 31 30 30 30 24 21 21 30 42 54 65 77 63 58 57 53 50 51 48 47
86 87 88 88 84 83 84 86 85 82 86 76 80 67 53 42 12 19 23 35 27 21 19 24 30 36 27 29 21 19 19 16 22 47 44 59 88 84 88 65 59 51 49 47 45
86 87 87 86 85 86 88 87 85 79 84 73 75 61 62 21 11 11 11 19 23 19 14 18 20 28 26 21 20 22 18 24 17 24 35 49 84 86 87 74 56 50 48 47 46
88 88 88 88 88 88 89 89 81 75 80 73 83 71 49 22 10 10 11 17 24 22 15 10 13 25 25 25 30 28 26 22 18 15 23 41 87 91 82 84 72 52 49 46 45
88 88 88 88 87 88 90 83 65 70 76 49 41 55 32 12 9 8 8 13 19 21 19 18 22 31 34 32 38 32 23 18 17 16 16 44 83 75 68 80 78 59 52 50 48
87 87 88 87 87 88 84 38 48 56 42 42 35 29 9 8 8 10 8 15 19 21 29 25 34 39 33 24 20 19 20 18 13 12 18 40 77 68 63 63 77 81 56 52 51
87 86 86 85 87 86 88 42 20 18 23 14 14 12 6 7 8 12 11 16 25 34 30 34 35 25 21 20 20 18 19 19 14 10 33 65 77 66 63 67 73 92 57 50 49
85 85 85 86 87 73 29 22 14 16 24 13 9 8 6 7 8 14 16 17 24 31 27 27 25 19 20 22 16 16 21 18 17 11 31 64 78 74 56 58 67 82 79 50 46
85 85 85 87 70 30 26 19 14 15 32 16 9 7 6 7 8 8 9 13 18 23 21 24 17 15 20 21 17 20 13 12 11 14 21 27 63 82 68 68 71 78 77 62 46
85 85 87 90 63 37 19 14 14 18 41 10 8 7 6 8 10 9 8 12 18 18 20 22 19 20 18 15 12 15 13 13 14 16 20 13 22 82 58 74 69 62 55 62 58
86 87 88 52 65 38 23 15 21 33 31 10 8 8 9 8 7 9 10 11 11 12 12 14 11 13 16 12 12 11 13 15 16 22 27 17 18 92 72 62 63 51 47 59 51
87 86 90 45 37 21 16 25 41 34 11 11 10 8 8 9 8 11 10 14 16 21 22 13 8 8 9 18 14 14 31 33 35 30 28 18 19 15 59 50 55 53 58 51 55
85 88 64 30 26 24 24 37 49 19 17 10 9 10 12 10 12 10 14 15 12 14 19 22 21 9 9 16 24 21 21 32 38 35 28 19 23 18 34 46 46 53 51 54 78
86 45 36 27 25 24 36 48 38 26 21 19 16 17 14 10 12 13 19 15 16 20 31 30 24 13 10 9 15 24 29 20 25 20 26 23 18 13 12 39 49 49 48 70 72
76 49 34 18 19 27 42 39 29 21 19 19 25 20 24 17 18 17 16 16 18 18 22 27 34 19 13 11 12 18 18 26 29 36 39 28 25 26 21 24 45 43 60 66 73
66 51 25 16 22 38 38 35 22 18 20 24 27 28 27 27 25 25 22 20 17 19 21 32 34 28 20 19 18 18 23 27 29 34 37 32 27 18 17 20 28 42 61 59 65
49 42 20 20 42 39 32 26 39 21 20 23 25 24 27 26 29 28 25 24 18 22 28 28 34 41 29 18 15 15 19 20 39 37 38 41 32 14 13 13 34 37 49 53 58
61 38 18 18 35 33 30 23 23 23 27 27 27 25 26 31 39 29 27 19 20 25 45 33 43 50 39 25 21 26 20 19 18 25 26 37 31 17 24 30 33 45 58 52 47
59 38 32 27 29 33 39 33 31 27 29 26 29 28 31 35 31 38 26 17 19 25 36 33 42 47 50 37 27 31 24 22 24 26 25 23 24 16 32 31 33 33 49 49 48
53 35 33 44 40 35 37 38 37 42 34 37 40 38 42 54 42 39 32 33 27 41 35 38 47 39 30 25 22 24 24 26 29 25 33 24 21 18 36 34 37 42 50 59 60
48 52 37 41 38 38 46 46 42 46 44 44 47 40 42 56 49 52 45 48 45 44 48 46 62 51 54 35 26 25 22 24 25 23 21 20 21 23 19 33 34 40 44 68 69
46 44 52 48 40 44 48 44 41 51 40 36 41 50 49 49 43 42 42 40 36 44 49 48 58 76 68 52 51 46 31 24 23 22 22 24 20 19 20 21 51 59 60 66 73

GFSSW_sfc_rhum_072.txt.gz
RH
76 76 80 82 81 80 80 82 83 83 83 83 84 85 85 89 87 78 54 29 33 60 52 45 47 35 37 65 57 50 90 88 80 70 64 63 74 59 54 58 52 55 56 53 54
76 79 81 82 82 82 82 82 83 83 83 84 84 84 84 87 78 63 44 49 55 61 18 24 29 33 47 61 59 70 91 71 53 56 77 68 72 70 65 62 56 64 51 48 51
78 81 82 82 82 82 83 82 83 83 84 86 85 83 86 82 75 48 51 56 67 53 17 15 26 33 45 47 55 57 72 54 52 56 62 70 84 80 75 70 66 71 58 53 53
80 82 83 83 83 83 83 83 84 84 84 85 84 82 86 80 44 26 64 61 65 29 17 22 30 43 46 50 43 55 43 43 40 55 65 78 83 90 86 81 63 56 51 52 54
82 83 84 84 84 84 83 84 84 85 83 85 81 82 89 76 51 30 66 62 48 27 20 21 37 49 47 44 41 42 38 34 30 46 66 70 74 84 84 77 62 53 50 53 54
83 85 85 85 84 83 83 85 85 85 82 85 81 83 77 55 27 39 44 47 32 26 26 21 29 42 44 37 40 33 30 27 21 63 67 66 72 62 68 64 64 57 55 53 52
84 85 88 86 84 83 83 85 84 84 80 82 81 74 69 43 24 38 36 43 37 24 25 20 19 34 45 40 30 29 28 20 44 57 61 66 82 79 80 60 65 57 55 54 52
85 85 85 84 84 84 87 86 85 82 78 80 78 81 74 36 38 38 37 40 30 27 20 20 24 33 40 32 23 26 28 26 30 56 61 61 92 88 75 69 66 57 52 52 55
88 87 85 86 87 88 89 88 80 75 75 76 92 88 63 35 12 11 15 16 32 28 20 12 18 20 27 35 33 34 41 31 21 43 62 67 92 86 80 78 67 57 52 52 55
88 87 87 86 87 88 89 87 74 74 78 63 54 68 38 24 11 10 10 20 30 30 27 24 25 32 40 43 48 40 38 27 23 16 51 74 90 84 87 78 69 60 56 51 52
87 87 86 86 88 89 92 63 34 46 63 54 52 40 19 12 11 12 10 17 24 28 35 29 38 44 41 37 28 27 29 26 20 17 17 54 87 88 88 76 78 73 68 52 51
86 86 86 87 89 89 96 45 27 20 27 24 27 27 22 12 10 11 11 18 28 34 33 41 45 32 27 27 27 28 28 27 20 18 56 88 95 88 85 83 78 72 69 54 51
86 87 87 89 90 80 51 29 22 36 34 19 15 13 14 8 10 17 14 16 30 37 37 46 35 27 26 28 29 32 32 26 23 46 62 68 83 79 69 74 81 71 69 58 50
87 87 88 89 56 54 37 27 21 20 36 23 16 8 8 8 10 12 14 16 24 32 34 35 23 20 26 28 29 41 20 16 17 19 22 47 80 80 76 88 88 82 76 74 55
87 87 89 91 77 53 28 33 25 20 36 15 10 8 8 9 11 10 11 14 23 22 20 24 25 26 25 20 22 27 19 17 20 22 24 21 28 58 70 86 87 88 74 68 59
87 87 88 78 90 59 46 35 25 34 31 13 9 10 10 11 10 11 13 13 15 17 15 13 12 17 20 17 17 15 18 20 24 26 31 25 20 55 86 65 70 79 75 65 57
87 88 90 63 41 41 35 34 44 40 19 14 13 10 11 11 11 11 15 19 17 19 22 17 15 10 10 16 18 18 26 35 35 31 32 26 24 21 55 57 55 67 72 60 57
87 92 87 53 53 41 39 41 54 29 32 22 18 12 12 12 14 11 15 18 21 21 29 29 22 18 14 19 22 27 25 33 38 38 34 25 29 19 29 44 42 47 57 56 58
92 72 55 38 40 41 41 56 48 35 26 26 22 20 28 17 13 14 20 25 24 26 32 34 28 18 16 16 17 25 33 25 31 47 34 30 24 19 19 39 50 51 57 63 68
96 79 57 34 35 37 46 51 35 24 24 26 36 31 36 31 29 24 24 23 24 22 28 32 33 27 19 17 19 21 20 26 35 46 48 35 32 28 22 36 47 56 55 62 74
84 61 38 26 32 45 47 42 27 24 24 28 32 33 34 34 32 33 31 26 23 24 27 36 37 32 22 29 33 26 26 26 36 39 45 42 33 31 38 53 50 56 50 52 70
92 42 24 29 42 54 42 37 35 31 28 31 29 31 35 33 34 35 34 30 25 30 39 38 42 44 39 27 22 23 31 34 40 35 45 47 41 28 38 40 48 60 46 54 62
92 80 31 32 56 58 44 33 33 35 39 33 37 35 33 38 39 32 29 25 26 33 41 38 52 57 39 37 30 31 25 40 38 42 35 37 32 20 31 43 52 64 69 67 70
82 51 44 47 54 54 57 45 44 33 38 40 42 41 46 52 48 48 43 34 33 35 43 39 52 53 60 50 37 34 26 25 41 50 44 39 28 23 26 35 42 63 70 63 58
68 50 56 60 55 55 51 50 52 58 46 45 49 47 53 68 63 59 52 47 37 45 44 47 51 54 51 43 40 42 38 28 32 39 47 34 31 24 29 27 51 58 66 71 76
59 62 57 60 49 51 66 62 57 58 53 56 59 51 60 76 77 76 65 65 61 46 53 58 67 68 64 47 46 42 35 34 30 28 31 31 36 61 57 61 70 67 74 81 84
73 72 54 61 58 62 64 59 52 59 48 45 50 58 62 61 57 58 59 60 57 70 55 59 67 78 82 60 49 50 36 36 34 34 63 91 77 67 69 65 70 72 75 80 83

GFSSW_sfc_rhum_075.txt.gz
RH
76 80 81 82 82 82 82 82 82 83 83 83 84 84 85 87 89 87 59 29 34 58 71 69 60 46 47 72 63 59 90 90 78 73 71 74 79 66 65 64 54 58 63 70 67
78 80 82 82 82 82 82 83 82 83 83 84 85 84 84 88 86 72 48 45 47 66 38 56 51 41 51 62 68 80 90 74 58 56 75 72 87 86 93 67 63 68 60 62 73
81 82 83 83 82 82 83 83 83 83 84 83 82 84 84 89 81 47 52 49 59 65 17 26 29 38 50 52 68 71 81 59 56 58 71 86 90 82 84 78 67 70 70 66 74
82 83 84 84 83 83 83 83 84 84 84 83 85 84 86 90 39 30 60 62 62 50 20 20 31 43 52 56 48 62 48 57 53 57 61 73 78 90 83 86 73 58 63 67 70
83 84 84 84 84 84 83 83 85 85 84 85 83 82 90 76 41 37 57 65 60 26 21 26 42 48 51 48 45 49 44 38 38 39 68 73 70 73 80 82 74 54 56 63 66
84 84 84 84 83 83 82 84 85 84 83 83 83 86 78 34 26 51 48 56 45 27 24 26 35 42 50 46 46 38 39 37 31 69 70 70 73 65 70 81 82 58 57 58 58
84 83 83 83 82 82 83 84 85 84 82 81 81 79 78 27 34 48 49 45 34 24 27 22 23 37 50 53 37 36 42 27 67 72 70 62 73 74 73 69 79 62 55 56 54
83 83 82 82 82 83 85 86 86 83 80 82 81 87 69 40 42 40 42 38 33 30 22 22 22 35 46 38 29 29 32 32 67 63 69 64 94 85 79 82 73 64 55 56 57
86 84 83 84 85 88 90 88 84 78 77 81 93 90 63 40 32 27 38 37 35 34 28 14 23 26 27 36 40 36 44 39 29 63 70 74 91 82 79 82 76 64 58 56 58
87 87 87 88 88 90 91 86 78 82 78 67 62 72 40 25 14 14 35 27 35 31 28 25 28 33 46 49 58 44 42 36 29 58 65 81 88 86 82 76 73 64 57 56 58
88 88 88 88 89 91 92 69 38 42 73 41 44 41 29 21 12 12 10 26 29 34 45 32 36 45 39 39 36 34 33 32 27 19 23 78 84 85 86 85 77 71 63 56 55
88 88 89 88 90 91 94 41 34 32 31 31 36 37 30 26 15 13 12 26 32 40 35 44 45 33 30 35 34 35 35 36 25 33 48 93 93 86 83 82 80 74 67 56 53
89 89 89 90 90 84 52 34 29 33 34 23 22 20 18 18 12 13 14 19 32 38 37 45 38 31 31 34 35 44 39 36 30 36 76 80 91 91 78 82 82 78 68 58 52
89 89 89 90 55 58 40 36 40 25 36 23 20 12 10 9 12 11 15 19 28 37 39 42 33 30 31 34 34 50 30 26 23 24 26 64 97 88 79 82 78 84 75 65 50
89 89 91 92 76 52 33 46 42 22 37 19 12 8 9 9 13 11 11 15 22 23 29 36 28 32 28 25 29 33 27 25 22 25 28 31 39 72 78 89 86 86 73 66 60
89 90 89 87 90 65 53 42 25 33 32 14 11 10 10 11 10 12 13 12 14 15 18 15 14 23 26 23 22 20 27 24 29 29 31 26 24 38 96 78 73 82 75 69 66
89 92 91 68 36 48 40 34 40 49 26 26 16 12 12 13 13 16 18 18 23 20 23 18 18 16 14 18 20 22 28 36 36 34 32 32 26 24 58 64 61 69 74 70 63
91 94 89 62 60 42 39 36 53 34 36 27 26 15 17 15 15 16 19 23 25 21 33 26 24 20 18 23 25 30 26 35 37 40 34 34 29 22 20 24 45 53 62 66 64
92 73 61 46 54 46 39 50 49 40 29 30 31 34 32 27 16 22 31 34 27 31 31 34 31 22 19 19 23 28 37 36 38 50 34 34 26 24 35 43 51 59 61 73 70
89 76 56 42 39 39 38 51 38 31 28 30 38 35 40 34 30 26 33 29 26 28 33 38 31 30 22 20 21 24 23 31 38 44 45 37 35 47 48 54 59 65 63 64 70
80 45 32 35 36 36 50 50 33 30 29 32 38 39 40 38 37 40 36 29 27 27 32 50 38 28 28 31 32 33 35 38 40 45 46 46 48 32 52 56 72 74 72 63 63
80 45 29 34 45 61 53 41 41 39 37 36 35 36 38 41 39 39 44 44 32 34 37 44 47 47 41 31 24 24 36 42 46 45 46 52 54 26 25 44 62 74 74 68 66
82 78 35 35 52 63 54 41 40 45 48 41 46 41 43 53 49 45 43 35 38 41 43 36 50 47 36 33 33 33 31 44 45 50 51 49 39 21 36 33 53 74 80 78 77
56 50 47 52 67 62 62 56 52 40 44 45 50 49 51 60 57 58 50 38 36 46 50 42 55 49 51 52 44 49 42 34 44 51 52 47 40 45 61 72 75 79 78 80 83
57 58 63 66 58 60 61 59 58 63 48 50 54 59 64 80 75 71 61 52 38 49 50 41 61 69 60 48 48 49 46 40 41 43 47 39 41 85 76 77 77 76 77 84 81
71 72 63 67 63 59 70 73 62 61 56 60 63 60 65 80 79 82 73 76 71 52 54 59 74 75 66 52 47 49 41 36 35 37 41 45 58 78 68 70 74 75 75 85 87
89 85 57 69 65 70 71 66 60 61 52 51 55 64 71 66 61 63 66 67 72 73 62 62 69 80 77 65 50 46 41 38 43 62 53 72 87 74 74 72 76 76 70 76 79